Time,TemperatureF,DewpointF,PressureIn,WindDirection,WindDirectionDegrees,WindSpeedMPH,WindSpeedGustMPH,Humidity,HourlyPrecipIn,Conditions,Clouds,dailyrainin,SoftwareType,DateUTC
2013-07-30 00:03:00,72.0,70.0,29.97,SE,146,1.0,5.0,94,0.00,,,1.00,,2013-07-30 05:03:00,
2013-07-30 00:23:00,72.0,70.0,29.97,SE,146,1.0,5.0,94,0.00,,,1.00,,2013-07-30 05:23:00,
2013-07-30 00:33:00,72.0,70.0,29.97,SE,146,1.0,5.0,94,0.00,,,1.00,,2013-07-30 05:33:00,
2013-07-30 00:45:00,72.0,70.0,29.97,SE,146,1.0,5.0,94,0.00,,,1.00,,2013-07-30 05:45:00,
2013-07-30 00:53:00,72.0,70.0,29.97,SE,146,1.0,5.0,94,0.00,,,1.00,,2013-07-30 05:53:00,
2013-07-30 02:03:00,72.0,70.0,29.97,East,100,1.0,2.0,95,0.00,,,1.00,,2013-07-30 07:03:00,
2013-07-30 02:23:00,72.0,70.0,29.97,East,100,1.0,2.0,95,0.00,,,1.00,,2013-07-30 07:23:00,
2013-07-30 02:33:00,72.0,70.0,29.97,East,100,1.0,2.0,95,0.00,,,1.00,,2013-07-30 07:33:00,
2013-07-30 02:43:00,72.0,70.0,29.97,East,100,1.0,2.0,95,0.00,,,1.00,,2013-07-30 07:43:00,
2013-07-30 02:53:00,72.0,70.0,29.97,East,100,1.0,2.0,95,0.00,,,1.00,,2013-07-30 07:53:00,
2013-07-30 04:02:00,73.0,71.0,29.96,South,169,3.0,7.0,94,0.00,,,1.02,,2013-07-30 09:02:00,
2013-07-30 04:23:00,73.0,71.0,29.96,South,169,3.0,7.0,94,0.00,,,1.02,,2013-07-30 09:23:00,
2013-07-30 04:33:00,73.0,71.0,29.96,South,169,3.0,7.0,94,0.00,,,1.02,,2013-07-30 09:33:00,
2013-07-30 04:43:00,73.0,71.0,29.96,South,169,3.0,7.0,94,0.00,,,1.02,,2013-07-30 09:43:00,
2013-07-30 04:53:00,73.0,71.0,29.96,South,169,3.0,7.0,94,0.00,,,1.02,,2013-07-30 09:53:00,
2013-07-30 06:22:00,72.0,70.0,29.96,SE,139,1.0,3.0,95,0.14,,,1.12,,2013-07-30 11:22:00,
2013-07-30 06:33:00,72.0,70.0,29.96,SE,139,1.0,3.0,95,0.14,,,1.12,,2013-07-30 11:33:00,
2013-07-30 06:43:00,72.0,70.0,29.96,SE,139,1.0,3.0,95,0.14,,,1.12,,2013-07-30 11:43:00,
2013-07-30 06:53:00,72.0,70.0,29.96,SE,139,1.0,3.0,95,0.14,,,1.12,,2013-07-30 11:53:00,
2013-07-30 08:22:00,72.0,70.0,29.98,SW,215,1.0,4.0,95,0.01,,,1.02,,2013-07-30 13:22:00,
2013-07-30 08:33:00,72.0,70.0,29.98,SW,215,1.0,4.0,95,0.01,,,1.02,,2013-07-30 13:33:00,
2013-07-30 08:43:00,72.0,70.0,29.98,SW,215,1.0,4.0,95,0.01,,,1.02,,2013-07-30 13:43:00,
2013-07-30 08:52:00,72.0,70.0,29.98,SW,215,1.0,4.0,95,0.01,,,1.02,,2013-07-30 13:52:00,
2013-07-30 09:02:00,72.0,70.0,29.98,SW,215,1.0,4.0,95,0.01,,,1.02,,2013-07-30 14:02:00,
2013-07-30 10:02:00,75.0,72.0,29.99,WNW,300,1.0,4.0,91,0.00,,,1.02,,2013-07-30 15:02:00,
2013-07-30 10:23:00,75.0,72.0,29.99,WNW,300,1.0,4.0,91,0.00,,,1.02,,2013-07-30 15:23:00,
2013-07-30 10:33:00,75.0,72.0,29.99,WNW,300,1.0,4.0,91,0.00,,,1.02,,2013-07-30 15:33:00,
2013-07-30 10:43:00,75.0,72.0,29.99,WNW,300,1.0,4.0,91,0.00,,,1.02,,2013-07-30 15:43:00,
2013-07-30 10:53:00,75.0,72.0,29.99,WNW,300,1.0,4.0,91,0.00,,,1.02,,2013-07-30 15:53:00,
2013-07-30 14:02:00,80.0,72.0,29.98,NE,56,7.0,8.0,78,0.00,,,0.71,,2013-07-30 19:02:00,
2013-07-30 14:23:00,80.0,72.0,29.98,NE,56,7.0,8.0,78,0.00,,,0.71,,2013-07-30 19:23:00,
2013-07-30 14:33:00,80.0,72.0,29.98,NE,56,7.0,8.0,78,0.00,,,0.71,,2013-07-30 19:33:00,
2013-07-30 14:44:00,80.0,72.0,29.98,NE,56,7.0,8.0,78,0.00,,,0.71,,2013-07-30 19:44:00,
2013-07-30 14:52:00,80.0,72.0,29.98,NE,56,7.0,8.0,78,0.00,,,0.71,,2013-07-30 19:52:00,
2013-07-30 16:02:00,82.0,72.0,29.98,NW,322,4.0,8.0,73,0.00,,,0.48,,2013-07-30 21:02:00,
2013-07-30 16:22:00,82.0,72.0,29.98,NW,322,4.0,8.0,73,0.00,,,0.48,,2013-07-30 21:22:00,
2013-07-30 16:32:00,82.0,72.0,29.98,NW,322,4.0,8.0,73,0.00,,,0.48,,2013-07-30 21:32:00,
2013-07-30 16:42:00,82.0,72.0,29.98,NW,322,4.0,8.0,73,0.00,,,0.48,,2013-07-30 21:42:00,
2013-07-30 16:53:00,82.0,72.0,29.98,NW,322,4.0,8.0,73,0.00,,,0.48,,2013-07-30 21:53:00,
2013-07-30 18:02:00,81.0,72.0,29.99,North,356,6.0,9.0,75,0.00,,,0.39,,2013-07-30 23:02:00,
2013-07-30 18:23:00,81.0,72.0,29.99,North,356,6.0,9.0,75,0.00,,,0.39,,2013-07-30 23:23:00,
2013-07-30 18:32:00,81.0,72.0,29.99,North,356,6.0,9.0,75,0.00,,,0.39,,2013-07-30 23:32:00,
2013-07-30 18:42:00,81.0,72.0,29.99,North,356,6.0,9.0,75,0.00,,,0.39,,2013-07-30 23:42:00,
2013-07-30 18:53:00,81.0,72.0,29.99,North,356,6.0,9.0,75,0.00,,,0.39,,2013-07-30 23:53:00,
2013-07-30 20:22:00,79.0,72.0,29.99,NE,44,3.0,6.0,78,0.00,,,0.30,,2013-07-31 01:22:00,
2013-07-30 20:32:00,79.0,72.0,29.99,NE,44,3.0,6.0,78,0.00,,,0.30,,2013-07-31 01:32:00,
2013-07-30 20:43:00,79.0,72.0,29.99,NE,44,3.0,6.0,78,0.00,,,0.30,,2013-07-31 01:43:00,
2013-07-30 20:52:00,79.0,72.0,29.99,NE,44,3.0,6.0,78,0.00,,,0.30,,2013-07-31 01:52:00,
2013-07-30 21:02:00,79.0,72.0,29.99,NE,44,3.0,6.0,78,0.00,,,0.30,,2013-07-31 02:02:00,
2013-07-30 22:22:00,76.0,71.0,30.04,North,360,1.0,3.0,84,0.00,,,0.24,,2013-07-31 03:22:00,
2013-07-30 22:32:00,76.0,71.0,30.04,North,360,1.0,3.0,84,0.00,,,0.24,,2013-07-31 03:32:00,
2013-07-30 22:42:00,76.0,71.0,30.04,North,360,1.0,3.0,84,0.00,,,0.24,,2013-07-31 03:42:00,
2013-07-30 22:52:00,76.0,71.0,30.04,North,360,1.0,3.0,84,0.00,,,0.24,,2013-07-31 03:52:00,
2013-07-30 23:02:00,76.0,71.0,30.04,North,360,1.0,3.0,84,0.00,,,0.24,,2013-07-31 04:02:00,